Cloud_Cover
77 100 99 100 88 100 100 100 5 63 4 42 30 26 22 2 2 3 0 0 0 0 0 0 8 41 4 86 100 100 100 100 100 100 100 100 91 100 58 38 75 87 100 100 100 94 100 76 87
98 100 100 100 100 96 100 81 5 50 6 52 4 20 4 5 0 17 9 4 0 0 0 0 1 4 5 5 26 94 58 80 100 100 100 100 100 100 100 100 100 100 100 100 100 87 100 96 100
100 100 100 100 100 98 98 74 8 18 4 29 39 1 0 29 0 2 0 5 0 0 0 0 0 5 79 100 100 94 71 2 5 61 88 100 100 75 92 99 100 65 100 100 100 100 100 100 100
100 100 100 100 100 100 71 26 9 13 12 6 4 0 0 0 1 0 4 5 0 0 0 0 0 3 47 84 26 34 5 5 5 3 4 5 47 5 86 7 56 39 38 100 100 100 100 100 100
100 100 100 100 100 100 100 23 100 63 76 0 0 0 0 0 0 0 4 6 0 0 0 0 4 74 5 25 5 96 97 82 10 6 5 10 5 5 5 12 5 5 100 100 100 100 100 100 100
100 100 100 100 96 99 100 28 100 87 95 0 0 0 0 0 0 0 0 0 5 5 0 15 6 87 97 43 5 32 7 5 29 13 5 9 5 72 80 65 5 5 69 100 100 100 100 100 100
100 100 100 100 100 100 100 81 100 100 60 0 0 0 1 0 0 0 0 1 43 44 0 2 5 3 42 5 27 5 5 6 6 76 43 74 96 46 50 5 5 5 18 28 98 100 100 100 100
100 100 100 100 100 100 100 100 100 100 4 0 1 0 1 0 0 1 0 0 3 97 0 5 3 0 5 5 4 3 26 100 90 77 100 100 10 38 100 8 5 5 5 5 69 93 100 100 100
100 82 100 100 100 100 95 96 100 100 100 32 5 0 0 5 0 0 4 0 5 11 0 0 3 3 5 8 47 72 100 87 100 100 100 100 100 100 100 2 1 3 5 5 5 5 5 37 56
100 98 97 100 100 100 100 100 100 80 95 22 21 3 0 0 14 22 0 2 16 0 3 0 0 0 5 15 91 63 84 91 64 57 49 45 94 100 7 0 0 5 5 10 8 5 9 90 93
97 100 100 100 100 100 100 100 24 97 100 100 2 0 0 0 5 0 0 0 0 0 0 0 0 4 3 56 98 92 100 29 48 9 88 98 89 31 0 2 2 3 7 48 20 11 25 78 95
58 100 100 100 100 100 100 100 97 100 100 67 4 0 82 0 20 13 19 0 0 0 0 0 0 1 55 86 91 100 57 35 50 98 52 83 5 0 2 24 26 5 5 17 5 6 97 84 74
8 98 100 100 85 100 99 100 100 100 100 99 9 2 0 0 5 8 90 0 0 0 0 0 2 1 0 4 24 89 15 85 98 100 34 60 87 33 48 30 37 42 95 4 6 50 4 1 4
8 38 87 100 100 80 100 100 100 100 100 100 90 47 0 5 20 38 0 35 5 3 0 0 0 94 0 1 7 96 51 48 85 2 2 9 7 75 84 90 98 56 96 94 36 0 0 0 4
0 4 87 100 93 82 100 100 100 100 100 100 90 13 4 20 24 94 14 0 5 5 4 0 87 7 7 0 0 0 5 7 0 0 0 0 42 85 53 5 0 3 0 0 33 86 5 5 5
4 8 37 99 100 100 100 100 100 100 100 88 64 93 1 100 55 55 20 0 4 3 1 0 60 0 2 0 0 2 0 0 0 5 11 1 0 25 2 0 0 0 17 0 0 5 5 4 2
60 100 89 94 100 98 100 100 100 100 99 29 27 75 2 99 91 9 5 3 5 5 0 0 0 0 4 0 3 8 4 20 5 3 20 5 7 10 0 0 0 0 1 61 0 1 5 2 0
19 100 83 100 100 100 100 100 100 67 100 100 100 90 43 24 91 5 3 5 5 5 2 0 1 72 0 21 1 0 0 100 4 53 40 66 27 10 2 1 0 0 0 13 5 23 84 0 0
91 100 100 100 100 100 100 100 100 83 99 94 100 96 100 97 11 47 5 7 5 24 5 1 0 5 0 0 7 5 0 2 100 23 92 69 96 32 100 4 4 3 0 2 4 79 100 34 0
76 94 100 96 100 100 100 100 100 94 79 77 100 58 88 39 14 0 2 0 1 68 5 2 0 17 28 1 1 5 2 5 5 83 85 65 1 3 12 5 4 1 0 5 9 10 100 81 0
4 96 100 100 100 100 100 100 100 100 100 89 98 100 100 47 2 21 4 0 0 1 4 5 0 2 33 17 0 1 2 5 1 4 0 5 4 34 29 0 5 5 5 25 53 12 38 100 100
6 99 100 100 100 100 100 100 100 100 100 100 100 100 100 39 5 1 3 0 40 0 5 5 4 0 5 23 6 6 5 6 86 13 5 2 0 4 0 0 0 0 5 59 10 2 3 81 40
13 99 100 100 100 100 100 100 100 100 100 100 100 100 93 59 11 12 1 2 0 0 0 5 5 5 3 5 4 1 5 7 18 5 100 6 5 5 5 3 0 0 5 6 26 52 34 61 60
79 100 100 100 87 100 100 96 100 100 100 100 100 100 100 98 93 8 72 0 0 3 0 0 3 1 44 19 5 7 5 6 30 13 5 65 27 5 5 2 1 0 0 0 5 5 23 66 19
7 89 100 100 100 100 100 100 100 100 100 100 100 93 100 100 79 27 8 2 5 5 4 0 0 4 1 5 7 75 80 34 5 81 67 5 18 95 81 18 5 4 1 0 0 2 93 5 25
1 53 100 100 100 100 100 100 100 100 100 100 100 100 100 100 27 96 17 0 0 3 5 5 3 5 2 1 12 5 6 97 31 33 80 100 99 83 82 98 70 82 30 5 4 5 5 0 0
0 88 46 77 98 100 77 98 98 100 100 100 100 100 100 100 92 17 92 2 0 94 10 18 4 4 4 0 4 7 16 12 6 27 51 100 98 98 100 100 100 100 97 86 6 24 9 2 3
0 47 7 100 99 100 99 100 100 100 100 100 82 100 100 100 98 96 94 3 8 60 41 22 99 6 5 3 3 5 5 1 3 3 44 35 73 100 99 91 100 100 100 88 41 52 4 5 4
3 11 57 22 74 100 100 100 100 81 100 100 100 100 85 100 98 85 90 3 41 97 25 100 100 98 40 97 85 18 2 0 3 3 5 5 6 51 100 91 49 100 99 100 68 9 66 100 91
7 75 99 5 4 22 100 100 100 97 81 100 99 100 100 100 100 98 99 86 52 98 36 42 100 99 100 100 98 68 54 3 0 0 2 0 4 5 5 85 98 73 90 100 85 100 100 96 99